TimeEST,TemperatureF,Dew PointF,Humidity,Sea Level PressureIn,VisibilityMPH,Wind Direction,Wind SpeedMPH,Gust SpeedMPH,PrecipitationIn,Events,Conditions,WindDirDegrees,DateUTC
12:51 AM,25.3,19.9,80,30.44,10.0,SW,4.6,-,N/A,,Overcast,220,2013-11-29 05:51:00
1:51 AM,25.3,19.9,80,30.45,10.0,Calm,Calm,-,N/A,,Overcast,0,2013-11-29 06:51:00
2:51 AM,23.5,19.4,84,30.48,10.0,Calm,Calm,-,N/A,,Scattered Clouds,0,2013-11-29 07:51:00
3:51 AM,21.2,19.4,93,30.50,10.0,Calm,Calm,-,N/A,,Partly Cloudy,0,2013-11-29 08:51:00
4:51 AM,21.2,18.9,91,30.51,10.0,Calm,Calm,-,N/A,,Partly Cloudy,0,2013-11-29 09:51:00
5:51 AM,21.7,17.8,85,30.53,10.0,Calm,Calm,-,N/A,,Partly Cloudy,0,2013-11-29 10:51:00
6:51 AM,20.5,18.0,90,30.56,10.0,Calm,Calm,-,N/A,,Clear,0,2013-11-29 11:51:00
7:51 AM,21.6,18.9,89,30.58,7.0,Calm,Calm,-,N/A,,Clear,0,2013-11-29 12:51:00
8:51 AM,24.3,18.3,78,30.62,6.0,Calm,Calm,-,N/A,,Partly Cloudy,0,2013-11-29 13:51:00
9:51 AM,27.7,19.6,72,30.63,7.0,WSW,3.5,-,N/A,,Clear,240,2013-11-29 14:51:00
10:51 AM,27.7,19.6,72,30.65,7.0,WSW,3.5,-,N/A,,Partly Cloudy,240,2013-11-29 15:51:00
11:51 AM,34.3,19.4,54,30.64,10.0,NNE,3.5,-,N/A,,Partly Cloudy,30,2013-11-29 16:51:00
12:51 PM,34.3,19.4,54,30.63,10.0,Calm,Calm,-,N/A,,Mostly Cloudy,0,2013-11-29 17:51:00
1:51 PM,34.3,19.4,54,30.63,10.0,Calm,Calm,-,N/A,,Mostly Cloudy,0,2013-11-29 18:51:00
2:51 PM,34.3,17.6,50,30.63,10.0,Calm,Calm,-,N/A,,Mostly Cloudy,0,2013-11-29 19:51:00
3:51 PM,33.3,18.3,54,30.64,10.0,Calm,Calm,-,N/A,,Mostly Cloudy,0,2013-11-29 20:51:00
4:51 PM,29.7,18.9,64,30.65,10.0,Calm,Calm,-,N/A,,Scattered Clouds,0,2013-11-29 21:51:00
5:51 PM,29.7,18.9,64,30.66,10.0,Calm,Calm,-,N/A,,Scattered Clouds,0,2013-11-29 22:51:00
6:51 PM,26.8,17.2,67,30.66,10.0,Calm,Calm,-,N/A,,Clear,0,2013-11-29 23:51:00
7:51 PM,26.2,17.1,68,30.66,10.0,Calm,Calm,-,N/A,,Partly Cloudy,0,2013-11-30 00:51:00
8:51 PM,25.0,16.3,70,30.66,10.0,Calm,Calm,-,N/A,,Partly Cloudy,0,2013-11-30 01:51:00
9:51 PM,24.8,17.2,73,30.64,10.0,Calm,Calm,-,N/A,,Partly Cloudy,0,2013-11-30 02:51:00
10:51 PM,23.9,17.1,75,30.64,10.0,East,3.5,-,N/A,,Scattered Clouds,100,2013-11-30 03:51:00
11:51 PM,24.1,16.9,74,30.62,8.0,ESE,3.5,-,N/A,,Scattered Clouds,110,2013-11-30 04:51:00